Retour au catalogue

STARLINK-36889

ActifCommunicationsVLEO
NORAD 68006·PAYLOAD·🇺🇸 United States

Lancé Feb 27, 2026 depuis Vandenberg Space Force Base

Loading…

Prochains Passages (prochaines 24 heures)

TLE

FraisSource: CelesTrak SupGP

Époque: Sep 15, 2026, 04:22 UTC

1 68006C 26039W   26258.18243056 -.00024317  00000+0 -88065-3 0  2588
2 68006  43.0024  58.8886 0001758 266.3677  54.3134 15.27593796    11

Suivez STARLINK-36889 en temps réel avec AllMySat

Download on the App Store